This demonstration page uses our WeatherBlox Daily Observations layout. Learn more.

Left ArrowRight Arrow

44.8408, -93.29828

Hourly Observations for March 25, 2016

Temp ( °F °C ) Dew Point ( °F °C ) Humidity (%) Winds ( mph kmh ) Pressure ( in mb ) Visibility ( mi km ) Precip ( " mm )
12:53 am 00:53 Clear 34 1.1 18 -7.8 52 52 ESE 7 11 29.94 1014 10 16 0.00 0.00
1:53 am 01:53 Clear 32 0 19 -7.2 59 59 ESE 5 7 29.93 1014 10 16 0.00 0.00
2:53 am 02:53 Clear 32 0 18 -7.8 56 56 S 3 6 29.93 1013 10 16 0.00 0.00
3:53 am 03:53 Clear 29 -1.7 20 -6.7 69 69 SE 5 7 29.91 1013 10 16 0.00 0.00
4:53 am 04:53 Clear 28 -2.2 19 -7.2 69 69 S 5 7 29.92 1013 10 16 0.00 0.00
5:53 am 05:53 Mostly Clear 27 -2.8 19 -7.2 72 72 S 3 6 29.92 1013 10 16 0.00 0.00
6:53 am 06:53 Partly Cloudy 28 -2.2 20 -6.7 72 72 SE 6 9 29.93 1014 10 16 0.00 0.00
7:53 am 07:53 Mostly Cloudy 28 -2.2 21 -6.1 75 75 SE 5 7 29.94 1014 10 16 0.00 0.00
8:53 am 08:53 Mostly Cloudy 32 0 22 -5.6 66 66 SE 7 11 29.94 1014 10 16 0.00 0.00
9:53 am 09:53 Mostly Cloudy 37 2.8 22 -5.6 54 54 SSE 8 13 29.93 1014 10 16 0.00 0.00
10:53 am 10:53 Mostly Cloudy 40 4.4 18 -7.8 41 41 SSW 9 15 29.93 1014 10 16 0.00 0.00
11:53 am 11:53 Mostly Cloudy 43 6.1 18 -7.8 37 37 SSW 10 17 29.95 1014 10 16 0.00 0.00
12:53 pm 12:53 Mostly Cloudy 45 7.2 18 -7.8 34 34 SSW 10 17 29.94 1014 10 16 0.00 0.00
1:53 pm 13:53 Mostly Cloudy 46 7.8 17 -8.3 31 31 S 14 22 29.93 1014 10 16 0.00 0.00
2:53 pm 14:53 Mostly Cloudy 47 8.3 19 -7.2 33 33 SSE 16 26 29.92 1013 10 16 0.00 0.00
3:53 pm 15:53 Mostly Cloudy 46 7.8 20 -6.7 35 35 SSE 17 28 29.90 1013 10 16 0.00 0.00
4:53 pm 16:53 Mostly Cloudy 48 8.9 22 -5.6 36 36 S 15 24 29.91 1013 10 16 0.00 0.00
5:53 pm 17:53 Mostly Cloudy 47 8.3 27 -2.8 46 46 SSE 13 20 29.91 1013 10 16 0.00 0.00
6:53 pm 18:53 Cloudy with Light Rain 45 7.2 32 0 61 61 SE 10 17 29.92 1013 9 14 0.00 0.03
7:53 pm 19:53 Cloudy with Light Rain 43 6.1 35 1.7 74 74 SE 8 13 29.94 1014 10 16 0.00 0.03
8:53 pm 20:53 Cloudy 43 6.1 34 1.1 71 71 ESE 8 13 29.95 1014 10 16 0.00 0.03
9:53 pm 21:53 Cloudy 42 5.6 34 1.1 73 73 SE 13 20 29.96 1014 10 16 0.00 0.03
10:53 pm 22:53 Cloudy with Light Rain 42 5.6 34 1.1 73 73 SSE 8 13 29.96 1015 10 16 0.00 0.03
11:53 pm 23:53 Cloudy 42 5.6 34 1.1 73 73 SE 9 15 29.96 1015 10 16 0.00 0.03

Powered by AerisWeather